Regional Weather Roundup
Issued by NWS

Home | Current Version | Previous Version | Graphics & Text | Print | Product List | Glossary On
Versions: 1 2 3 4 5 6 7 8 9 10 11 12 13 14 15 16 17 18 19 20 21 22 23 24 25 26 27 28 29 30 31 32 33 34 35 36 37 38 39 40 41 42 43 44 45 46 47 48 49 50
000
ASUS43 KBIS 011710
RWRND

NORTH DAKOTA REGIONAL WEATHER ROUNDUP
NATIONAL WEATHER SERVICE BISMARCK ND
1200 PM CDT MON SEP 01 2014

NOTE: "FAIR" INDICATES FEW OR NO CLOUDS BELOW 12,000 FEET WITH NO
SIGNIFICANT WEATHER AND/OR OBSTRUCTIONS TO VISIBILITY.


NDZ001>003-009>011-017-011800-
NORTHWEST NORTH DAKOTA

CITY           SKY/WX    TMP DP  RH WIND       PRES   REMARKS
WILLISTON      SUNNY     68  47  46 N9        29.85S
MINOT          SUNNY     66  51  58 W10       29.79S
MINOT AFB      SUNNY     66  52  61 NW8       29.78S
$$

NDZ018>021-031>035-040>046-011800-
SOUTHWEST NORTH DAKOTA

CITY           SKY/WX    TMP DP  RH WIND       PRES   REMARKS
BISMARCK       SUNNY     69  53  56 NW13      29.82R
DICKINSON      MOSUNNY   66  48  52 NW10      29.86S
GARRISON         N/A     66  56  70 NW10      29.82R
HETTINGER ARPT MOSUNNY   67  49  52 NW15      29.89R
$$

NDZ004>008-012>016-024-026-027-054-011800-
NORTHEAST NORTH DAKOTA

CITY           SKY/WX    TMP DP  RH WIND       PRES   REMARKS
GRAND FORKS    MOSUNNY   72  55  55 N5        29.71R
GRND FRKS AFB  SUNNY     73  58  60 VRB7      29.72R
DEVILS LAKE    CLOUDY    66  54  63 NW18      29.73S
$$

NDZ022-023-025-028>030-036>039-047>053-011800-
SOUTHEAST NORTH DAKOTA

CITY           SKY/WX    TMP DP  RH WIND       PRES   REMARKS
FARGO          SUNNY     72  57  59 NW6       29.74R
JAMESTOWN      SUNNY     68  55  63 W10G20    29.77R
$$




USA.gov is the U.S. government's official web portal to all federal, state and local government web resources and services.